Starlink 6331

operational
NORAD ID: 57351 Int'l Des: 2023-099 Owner: SPXS Country: US Constellation: starlink
LEOCIRCULAR

About Starlink 6331

Description loading...

Live Position

Loading 3D Globe...

Upcoming Passes

Altitude History

Altitude vs Time

uPlot chart will show altitude changes over time

Two-Line Element Set

1 57351U 23099Z 26061.58335648 .00069035 00000-0 46501-2 0 9992
2 57351 43.0007 287.0780 0002163 257.4445 97.9986 15.05811930 5727
Epoch: Mar 2, 2026 • Age: 24 hours

Current Status

Altitude 551.0 km
Velocity 7.59 km/s
Sub-Earth Point -15.05°S, 46.44°W
Launch Date Jul 16, 2023
Age 2.6 years
Type internet

Technical Details

Classification Payload
Mass 305.00 kg
Dry Mass 290.00 kg
Total Mass 305.00 kg
Length 0.20 m
Diameter 2.80 m
Span 9.00 m
Shape Box + pan
Manufacturer SPXS
Bus Type Starlink
Phase Status In Orbit
Owner/State SPXS/US

Large Constellations

Loading constellations...